Regional Weather Roundup
Issued by NWS Wakefield, VA

Home | Current Version | Previous Version | Graphics & Text | Print | Product List | Glossary On
Versions: 1 2 3 4 5 6 7 8 9 10 11 12 13 14 15 16 17 18 19 20 21 22 23 24 25 26 27 28 29 30 31 32 33 34 35 36 37 38 39 40 41 42 43 44 45 46 47 48 49 50
000
ASUS41 KAKQ 181715
RWRAKQ

REGIONAL WEATHER ROUNDUP
NATIONAL WEATHER SERVICE WAKEFIELD VA
1200 PM EST WED JAN 18 2017

Note: "fair" indicates few or no clouds below 12,000 feet with no
significant weather and/or obstructions to visibility. * = Denotes
station may not report precipitation (e.g., rain,snow,etc.),
thunder or fog.

VAZ042-051-052>054-056-181800-
NORTHERN VIRGINIA

CITY           SKY/WX    TMP DP  RH WIND       PRES   REMARKS
WASH NATIONAL  PTSUNNY   59  43  55 NW18G25   29.94F
DULLES         PTSUNNY   55  39  54 NW21G29   29.94F
FORT BELVOIR   MOSUNNY   58  40  49 NW21G28   29.93F
QUANTICO       MOSUNNY   59  41  51 N20G39    29.95F
FREDERICKSBRG* SUNNY     60  42  52 NW13G26   29.94S
STAFFORD*      SUNNY     58  41  53 NW23G29   29.99S
WARRENTON      PTSUNNY   59  37  44 NW9       29.95F
CULPEPER*      MOSUNNY   60  40  48 NW14      29.96F
MANASSAS*      MOSUNNY  N/A N/A N/A NW12G23   29.96F
LEESBURG*      CLOUDY    55  45  67 NW20G28   29.96S
WINCHESTER     CLOUDY    52  37  58 W16G26    29.97F
FRONT ROYAL*   FAIR      54  37  54 W13G18    29.96F
LURAY*         PTSUNNY   54  39  58 W14       29.97F
$$

VAZ048-049-060>072-079>083-181800-
CENTRAL AND SOUTH CENTRAL VIRGINIA

CITY           SKY/WX    TMP DP  RH WIND       PRES   REMARKS
RICHMOND       PTSUNNY   56  48  74 N7        29.94F
CHESTERFIELD*  PTSUNNY   59  37  44 N10       29.95F
PETERSBURG*    CLOUDY    61  45  55 NW7       29.93F
HANOVER        MOSUNNY   58  46  64 VRB7      29.96F
TAPPAHANNOCK*  PTSUNNY   54  47  80 NE5       29.94F
QUINTON*       CLOUDY    55  47  76 MISG      29.94F
CHARLOTTSVILLE MOSUNNY   61  36  39 NW9G18    29.97F
GORDONSVILLE*  FAIR      59  39  47 NW8G16    29.96F
ORANGE*          N/A     59  37  44 SW20G25   29.97F
LOUISA*        SUNNY     64  45  48 NW14G22   29.93F
BUMPASS*       FAIR      60  47  62 NW8       29.95F
FARMVILLE*     SUNNY     63  40  43 W6G16     29.96F
CREWE*         FAIR      63  40  42 NW14G25   29.95S
FORT PICKETT*  FAIR      64  33  31 NW16G30   29.94F
CHASE CITY*    FAIR      63  37  38 W14G24    29.97S
CLARKSVILLE*   FAIR      63  41  45 W12G20    29.97F
SOUTH HILL*    SUNNY     64  42  45 NW13G23   30.00F
LAWRENCEVILLE* PTSUNNY   64  39  40 NW13G23   29.94S
EMPORIA*       MOSUNNY   64  43  45 W14G22    29.93F
$$

VAZ088>098-181800-
SOUTHEAST VIRGINIA

CITY           SKY/WX    TMP DP  RH WIND       PRES   REMARKS
NORFOLK        CLOUDY    52  48  86 N10       29.91F
VIRGINIA BEACH CLOUDY    54  48  80 N12       29.90F
NORFOLK NAVAL  CLOUDY    53  47  79 NE12      29.93F
WEST POINT*    CLOUDY    53  46  76 N5        29.96S
SALUDA*        CLOUDY    50  47  90 NW8G16    29.94S
NEWPORT NEWS   CLOUDY    58  48  69 N15G22    29.92F
LANGLEY AFB    PTSUNNY   55  48  76 N15       29.91F
FORT EUSTIS    PTSUNNY   59  48  66 N12G20    29.90S
WILLIAMSBURG*  MOSUNNY   59  50  72 N12       29.95R
HR EXEC AP*    CLOUDY    61  50  67 NE10G17   29.89F
FRANKLIN*      CLOUDY    65  47  52 N10       29.91F
US460-WAKEFLD  RAIN      61  52  72 NW8G20    29.92F
$$

VAZ020-022-025-037-045-181800-
WEST CENTRAL AND SOUTHWEST VIRGINIA

CITY           SKY/WX    TMP DP  RH WIND       PRES   REMARKS
STAUNTON*      PTSUNNY   54  35  48 NW9G16    30.00F
WAYNESBORO*    PTSUNNY   53  33  47 NW12G21   29.99F
HOT SPRINGS VA CLOUDY    39  34  81 NW20G31   29.98F
LYNCHBURG      SUNNY     59  36  42 NW13G18   30.01F
DANVILLE       SUNNY     62  38  40 NW9G17    30.01F
SOUTH BOSTON*  FAIR      63  40  43 N13G20    30.00F
MARTINSVILLE   SUNNY     61  36  39 N14G30    30.05S
ROANOKE        MOSUNNY   57  36  45 W22G30    30.05F
BLACKSBURG     CLOUDY    50  37  62 W13G22    30.09F
DUBLIN*        MOSUNNY   52  38  59 W22G30    30.08F
MARION*        SUNNY     52  37  57 W21G29    30.09F
HILLSVILLE*    MOSUNNY   51  38  60 W8G24     30.04F
RICHLANDS*     PTSUNNY  N/A N/A N/A NW8       30.13F
WISE*          MOSUNNY   46  37  71 NW7       30.16F
ABINGDON*      PTSUNNY   55  41  60 NW10G17   30.12F
$$

MDZ021>025-VAZ099-100-181800-
SOUTHERN MARYLAND AND THE DELMARVA PENINSULA

CITY           SKY/WX    TMP DP  RH WIND       PRES   REMARKS
PATUXENT RIVER CLOUDY    46  45  96 CALM      29.92F
BAY BRIDGE APT CLOUDY    50  45  81 N6        29.93S
LEONARDTOWN    CLOUDY    54  45  71 NW6       29.93F
DOVER          PTSUNNY   45  43  93 NW9       29.86F
GEORGETOWN     CLOUDY    49  44  83 N10       29.91F
EASTON         PTSUNNY   50  46  87 N3        29.95F
CAMBRIDGE      CLOUDY    46  45  93 N6        29.91F
SALISBURY      CLOUDY    51  45  79 N10G17    29.89F
OCEAN CITY     CLOUDY    51  46  83 N10       29.89F
WALLOPS ISLAND LGT RAIN  52  49  89 NW10      29.91F FOG
ACCOMACK*      DRIZZLE   49  48  95 NW7       29.93S
$$

NCZ012>017-030>032-181800-
NORTH CENTRAL AND EASTERN NORTH CAROLINA

CITY           SKY/WX    TMP DP  RH WIND       PRES   REMARKS
ROANOKE RAPIDS FAIR      66  46  48 NW14G21   29.93F
RALEIGH        MOSUNNY   69  44  40 NW10G18   29.97F
ELIZABETH CITY SUNNY     68  51  54 NW20G29   29.88F
AHOSKIE*         N/A     65  48  53 NW6       29.91F
EDENTON*       SUNNY     68  55  62 NW20      29.90F
CURRITUCK*     MOSUNNY   66  56  69 N13       29.89F
KILL DEVIL HLS NOT AVBL
MANTEO         MOSUNNY   61  60  94 W7        29.88F
CAPE HATTERAS  CLOUDY    61  59  93 W10G20    29.88F FOG
TARBORO*       NOT AVBL
GOLDSBORO      MOSUNNY   69  58  69 NW15G24   29.92F
WASHINGTON     PTSUNNY   66  59  76 W7        29.91F
GREENVILLE     MOSUNNY   68  59  73 W9G16     29.95F
NEW BERN       PTSUNNY   65  61  87 W10G21    29.93F
WILMINGTON     CLOUDY    67  62  84 W9        29.96F
$$

VAZ048-181800-
ELSEWHERE

CITY           SKY/WX    TMP DP  RH WIND       PRES   REMARKS
HARRISBURG PA  CLOUDY    47  44  90 NW8       29.92F
BALTIMORE      LGT RAIN  53  44  71 NW14G21   29.93S
ANNAPOLIS      CLOUDY    54  41  61 NW16G23   29.92F
ANDREWS AFB    MOSUNNY   56  42  57 NW23G30   29.92F
PHILADELPHIA   CLOUDY    45  40  82 N8        29.93F
HENDERSON NC   SUNNY     62  34  35 NW13G25   29.98S
GREENSBORO     MOSUNNY   65  37  35 NW13G25   30.00F
ROCKY MOUNT    SUNNY     69  49  48 W14       29.93F
$$

VAZ100-181800-
MARINE

STATION/POSITION TIME  TEMP    WIND        PRES    WAVE   SWELL
                       AIR SEA DIR/SP/G            HT/PER HT/PER
                 (UTC) (F)     (DEG/KT/KT) (MB)    (FT/S) (FT/S)
CAPE MAY NJ      1642   40 41  320/  5/  7 1012.5F
LEWES DE         1648          330/  8/ 10   N/A
OCEAN-CITY-INLET 1648           20/  8/ 11   N/A
WACHAPREAGUE VA  1642   51 48  290/  2/  5 1013.0F
THOMAS POINT MD  1700   54 39  320/ 22/ 25   N/A
GOOSES REEF MD   1700   42      20/  4/  4 1013.7    0
COVE POINT MD    1642   40     360/  1/  2 1013.9F
SOLOMONS ISLAND  1648           90/  4/  5   N/A
BISHOPS HEAD MD  1642   49 44  310/  6/ 10 1013.4F
PINEY POINT MD   1648          210/  3/  4   N/A
POTOMAC MD       1700   42 41  170/  2/  2 1012.6    0
CAMBRIDGE MD     1642   42 39  320/  4/  7 1012.4F
LEWISETTA VA     1642   47 44  260/  2/  2 1013.3F
RAPPAHANNOCK LGT 1648          340/ 14/ 15 1014.1F
STINGRAY PT      1650   45     360/  6/  8 1014.3F
YORK RVR RNG VA  1642   52      10/ 17/ 20 1012.6F
YORKTOWN VA      1642   56 44  360/ 16/ 21 1013.3S
JAMESTOWN VA     1700   56 44  360/  8/ 14   N/A     0
DOMINION TERM VA 1642   58      20/ 12/ 16 1012.7F
KIPTOPEKE VA     1648          350/ 14/ 17   N/A
CHES BAY BRIDGE  1642   46 43   20/ 11/ 14 1012.9F
CAPE HENRY VA    1642   47     330/ 11/ 15   N/A
WILLOUBY STN VA  1642   48      30/ 11/ 11 1013.7F
S CRANEY ISL VA  1642   55      40/ 14/ 18 1012.6F
CAPE HENRY BUOY  1642      45                N/A     2/ 6
OFFSHORE WE BUOY 1651      50                N/A     2/ 6
64NM E OF VA BCH 1650   56 57  330/  8/ 12 1011.1F   4/ 6   3/ 6
DUCK PIER NC     1642   57 46  260/  9/ 10 1011.2F
44100 DUCK FRF   1635      47                N/A     2/ 6
44056 DUCK FRF   1630      45                N/A     1/ 6
OREGON INLET NC  1642   53 51  230/  8/ 10 1012.1F
HATTERAS NC      1648          240/ 12/ 18   N/A
DIAMOND SHLS NC  1650   65 72  270/ 25/ 31 1012.1F   8/ 7   2/11
CAPE LOOKOUT NC  1600   60     260/ 14/ 17 1014.4F
$$



USA.gov is the U.S. government's official web portal to all federal, state and local government web resources and services.